Погода в Конакри

Гвинея     9°37′42″N   13°35′18″W
темп.,
°C
ветер,
м/с
пор.,
м/с
влажн.,
%
обл.,
%
осадки,
мм/ч
давл.,
гПа
погр.,
м
9 августа, вт
вт900:00+23ююз129457 2.3 101456
03:00+24зсз0092100 0.3 101336
06:00+23ссв1193100 0.5 101424
09:00+26ююз1184100 0.0 1015407
12:00+28зюз327290 0.3 10141018
15:00+27зюз458070 2.6 1012808
18:00+26зюз3488100 6.1 1012492
21:00+24юз1294100 1.9 101478
10 августа, ср
ср1000:00+24з1294100 6.0 101467
03:00+24юз1193100 0.4 101352
06:00+24ююз1193100 2.2 101342
09:00+25ю228669 0.3 1014468
12:00+27юз338187 2.3 1014730
15:00+26юз348489 5.0 1012683
18:00+25юз3490100 8.1 1012406
21:00+24юз1395100 3.6 1014121
11 августа, чт
чт1100:00+24юз1195100 7.2 101454
03:00+23ююз1295100 4.6 101259
06:00+23сз0199100 23.4 101278
09:00+24ссз1293100 11.4 101392
12:00+23вюв0194100 27.0 1014196
15:00+23ююв1297100 6.9 1013183
18:00+23ю4898100 31.9 1013595
21:00+23ююз3797100 16.9 1014498
12 августа, пт
пт1200:00+23ююз2595100 19.8 1015235
03:00+23ю2395100 3.6 1013128
06:00+23ю2395100 7.0 1014108
09:00+23ююв2495100 2.6 1015206
12:00+25ю248887 4.1 1016593
15:00+24ююз259291 2.8 1014424
18:00+24ююз259356 7.4 1014349
21:00+23ююз249580 4.2 1016144
13 августа, сб
сб1300:00+23юз2498100 10.1 1016256
03:00+23юз1296100 3.8 1014113
06:00+23юз1195100 7.4 101458
09:00+22ююз129797 5.9 1016118
12:00+22ююв1298100 14.4 1016129
15:00+22ююз2397100 5.0 1015198
18:00+22юз2398100 12.8 1015194
21:00+22юз2499100 8.4 1016218